Time,TemperatureF,DewpointF,PressureIn,WindDirection,WindDirectionDegrees,WindSpeedMPH,WindSpeedGustMPH,Humidity,HourlyPrecipIn,Conditions,Clouds,dailyrainin,SoftwareType,DateUTC
2013-03-01 00:03:00,49.6,24.4,30.24,NW,319,0.0,0.0,37,0.00,,CLR,0.00,VWS V14.01,2013-03-01 08:03:00,
2013-03-01 00:09:00,49.4,24.3,30.24,NNW,327,0.0,0.0,37,0.00,,CLR,0.00,VWS V14.01,2013-03-01 08:09:00,
2013-03-01 00:14:00,49.4,24.3,30.24,NNW,327,0.0,0.0,37,0.00,,CLR,0.00,VWS V14.01,2013-03-01 08:14:00,
2013-03-01 00:20:00,49.3,24.1,30.24,North,8,0.0,0.0,37,0.00,,CLR,0.00,VWS V14.01,2013-03-01 08:20:00,
2013-03-01 00:26:00,49.3,24.1,30.24,ENE,69,0.0,0.0,37,0.00,,CLR,0.00,VWS V14.01,2013-03-01 08:26:00,
2013-03-01 00:31:00,49.3,24.8,30.24,ENE,70,0.0,0.0,38,0.00,,CLR,0.00,VWS V14.01,2013-03-01 08:31:00,
2013-03-01 00:36:00,49.1,24.6,30.24,ENE,70,0.0,0.0,38,0.00,,CLR,0.00,VWS V14.01,2013-03-01 08:36:00,
2013-03-01 00:41:00,48.9,24.4,30.24,ENE,70,0.0,0.0,38,0.00,,CLR,0.00,VWS V14.01,2013-03-01 08:41:00,
2013-03-01 00:47:00,48.7,24.3,30.24,ENE,69,0.0,0.0,38,0.00,,CLR,0.00,VWS V14.01,2013-03-01 08:47:00,
2013-03-01 00:52:00,48.5,24.1,30.24,ENE,69,0.0,0.0,38,0.00,,CLR,0.00,VWS V14.01,2013-03-01 08:52:00,
2013-03-01 00:58:00,48.5,24.1,30.24,ENE,69,0.0,0.0,38,0.00,,CLR,0.00,VWS V14.01,2013-03-01 08:58:00,
2013-03-01 01:03:00,48.4,23.9,30.24,ENE,69,0.0,0.0,38,0.00,,CLR,0.00,VWS V14.01,2013-03-01 09:03:00,
2013-03-01 01:08:00,48.0,23.6,30.24,ENE,69,0.0,0.0,38,0.00,,CLR,0.00,VWS V14.01,2013-03-01 09:08:00,
2013-03-01 01:13:00,47.8,24.1,30.24,ENE,70,0.0,0.0,39,0.00,,CLR,0.00,VWS V14.01,2013-03-01 09:13:00,
2013-03-01 01:18:00,47.6,23.9,30.24,ENE,70,0.0,0.0,39,0.00,,CLR,0.00,VWS V14.01,2013-03-01 09:18:00,
2013-03-01 01:23:00,47.6,23.9,30.24,ENE,70,0.0,0.0,39,0.00,,CLR,0.00,VWS V14.01,2013-03-01 09:23:00,
2013-03-01 01:29:00,47.3,23.6,30.24,ENE,69,0.0,0.0,39,0.00,,CLR,0.00,VWS V14.01,2013-03-01 09:29:00,
2013-03-01 01:34:00,47.1,23.4,30.24,ENE,70,0.0,0.0,39,0.00,,CLR,0.00,VWS V14.01,2013-03-01 09:34:00,
2013-03-01 01:40:00,46.9,23.3,30.24,ENE,69,0.0,0.0,39,0.00,,CLR,0.00,VWS V14.01,2013-03-01 09:40:00,
2013-03-01 01:45:00,46.9,23.3,30.24,ENE,69,0.0,0.0,39,0.00,,CLR,0.00,VWS V14.01,2013-03-01 09:45:00,
2013-03-01 01:51:00,46.9,25.0,30.24,NW,318,0.0,0.0,42,0.00,,CLR,0.00,VWS V14.01,2013-03-01 09:51:00,
2013-03-01 01:57:00,46.7,24.9,30.24,NNW,331,0.0,0.0,42,0.00,,CLR,0.00,VWS V14.01,2013-03-01 09:57:00,
2013-03-01 02:02:00,46.7,24.9,30.24,NNW,331,0.0,0.0,42,0.00,,CLR,0.00,VWS V14.01,2013-03-01 10:02:00,
2013-03-01 02:08:00,46.6,24.7,30.24,NNW,331,0.0,0.0,42,0.00,,CLR,0.00,VWS V14.01,2013-03-01 10:08:00,
2013-03-01 02:14:00,46.4,24.5,30.24,NNW,331,0.0,0.0,42,0.00,,CLR,0.00,VWS V14.01,2013-03-01 10:14:00,
2013-03-01 02:19:00,46.2,24.4,30.24,NNW,331,0.0,0.0,42,0.00,,CLR,0.00,VWS V14.01,2013-03-01 10:19:00,
2013-03-01 02:25:00,46.6,26.4,30.24,NNW,331,0.0,0.0,45,0.00,,CLR,0.00,VWS V14.01,2013-03-01 10:25:00,
2013-03-01 02:30:00,46.4,26.7,30.24,NNW,330,0.0,0.0,46,0.00,,CLR,0.00,VWS V14.01,2013-03-01 10:30:00,
2013-03-01 02:36:00,46.2,26.0,30.24,NNW,331,0.0,0.0,45,0.00,,CLR,0.00,VWS V14.01,2013-03-01 10:36:00,
2013-03-01 02:41:00,46.0,25.9,30.24,NNW,331,0.0,0.0,45,0.00,,CLR,0.00,VWS V14.01,2013-03-01 10:41:00,
2013-03-01 02:47:00,45.7,25.6,30.24,NNW,331,0.0,0.0,45,0.00,,CLR,0.00,VWS V14.01,2013-03-01 10:47:00,
2013-03-01 02:52:00,45.5,25.4,30.21,NNW,330,0.0,0.0,45,0.00,,CLR,0.00,VWS V14.01,2013-03-01 10:52:00,
2013-03-01 02:57:00,45.5,25.9,30.21,NNW,331,0.0,0.0,46,0.00,,CLR,0.00,VWS V14.01,2013-03-01 10:57:00,
2013-03-01 03:03:00,45.5,26.4,30.21,NNW,331,0.0,0.0,47,0.00,,CLR,0.00,VWS V14.01,2013-03-01 11:03:00,
2013-03-01 03:08:00,45.3,26.3,30.21,NNW,331,0.0,0.0,47,0.00,,CLR,0.00,VWS V14.01,2013-03-01 11:08:00,
2013-03-01 03:13:00,45.1,25.6,30.21,NNW,331,0.0,0.0,46,0.00,,CLR,0.00,VWS V14.01,2013-03-01 11:13:00,
2013-03-01 03:18:00,45.1,25.6,30.21,NNW,331,0.0,0.0,46,0.00,,CLR,0.00,VWS V14.01,2013-03-01 11:18:00,
2013-03-01 03:24:00,45.1,26.1,30.21,NNW,331,0.0,0.0,47,0.00,,CLR,0.00,VWS V14.01,2013-03-01 11:24:00,
2013-03-01 03:29:00,45.1,26.6,30.21,NNW,331,0.0,0.0,48,0.00,,CLR,0.00,VWS V14.01,2013-03-01 11:29:00,
2013-03-01 03:35:00,45.1,26.6,30.21,NNW,328,0.0,0.0,48,0.00,,CLR,0.00,VWS V14.01,2013-03-01 11:35:00,
2013-03-01 03:40:00,44.9,25.9,30.21,NNW,328,0.0,0.0,47,0.00,,CLR,0.00,VWS V14.01,2013-03-01 11:40:00,
2013-03-01 03:46:00,44.9,25.9,30.21,NNW,328,0.0,0.0,47,0.00,,CLR,0.00,VWS V14.01,2013-03-01 11:46:00,
2013-03-01 03:52:00,44.8,25.8,30.21,NNW,328,0.0,0.0,47,0.00,,CLR,0.00,VWS V14.01,2013-03-01 11:52:00,
2013-03-01 03:57:00,44.6,25.6,30.21,NNW,328,0.0,0.0,47,0.00,,CLR,0.00,VWS V14.01,2013-03-01 11:57:00,
2013-03-01 04:03:00,44.4,25.5,30.21,NNW,328,0.0,0.0,47,0.00,,CLR,0.00,VWS V14.01,2013-03-01 12:03:00,
2013-03-01 04:08:00,44.2,25.3,30.21,NNW,328,0.0,0.0,47,0.00,,CLR,0.00,VWS V14.01,2013-03-01 12:08:00,
2013-03-01 04:13:00,44.0,25.1,30.21,NNW,328,0.0,0.0,47,0.00,,CLR,0.00,VWS V14.01,2013-03-01 12:13:00,
2013-03-01 04:18:00,43.9,25.0,30.21,NNW,328,0.0,0.0,47,0.00,,CLR,0.00,VWS V14.01,2013-03-01 12:18:00,
2013-03-01 04:24:00,44.0,25.6,30.21,NNW,328,0.0,0.0,48,0.00,,CLR,0.00,VWS V14.01,2013-03-01 12:24:00,
2013-03-01 04:29:00,43.9,25.5,30.21,NNW,328,0.0,0.0,48,0.00,,CLR,0.00,VWS V14.01,2013-03-01 12:29:00,
2013-03-01 04:35:00,43.9,25.0,30.21,NNW,328,0.0,0.0,47,0.00,,CLR,0.00,VWS V14.01,2013-03-01 12:35:00,
2013-03-01 04:41:00,43.7,24.8,30.21,NNW,328,0.0,0.0,47,0.00,,CLR,0.00,VWS V14.01,2013-03-01 12:41:00,
2013-03-01 04:46:00,43.5,24.6,30.21,NNW,328,0.0,0.0,47,0.00,,CLR,0.00,VWS V14.01,2013-03-01 12:46:00,
2013-03-01 04:51:00,43.5,24.6,30.21,NNW,328,0.0,0.0,47,0.00,,CLR,0.00,VWS V14.01,2013-03-01 12:51:00,
2013-03-01 04:57:00,43.3,24.5,30.21,NNW,328,0.0,0.0,47,0.00,,CLR,0.00,VWS V14.01,2013-03-01 12:57:00,
2013-03-01 05:02:00,43.3,24.5,30.21,NNW,328,0.0,0.0,47,0.00,,CLR,0.00,VWS V14.01,2013-03-01 13:02:00,
2013-03-01 05:07:00,43.3,24.5,30.21,NNW,328,0.0,0.0,47,0.00,,CLR,0.00,VWS V14.01,2013-03-01 13:07:00,
2013-03-01 05:12:00,43.3,24.5,30.21,NNW,328,0.0,0.0,47,0.00,,CLR,0.00,VWS V14.01,2013-03-01 13:12:00,
2013-03-01 05:17:00,43.3,24.5,30.21,NNW,337,0.0,0.0,47,0.00,,CLR,0.00,VWS V14.01,2013-03-01 13:17:00,
2013-03-01 05:23:00,43.5,24.6,30.21,NNW,337,2.2,2.7,47,0.00,,CLR,0.00,VWS V14.01,2013-03-01 13:23:00,
2013-03-01 05:28:00,43.3,23.9,30.21,SW,214,0.0,0.0,46,0.00,,CLR,0.00,VWS V14.01,2013-03-01 13:28:00,
2013-03-01 05:33:00,43.3,23.4,30.21,NW,306,0.0,0.0,45,0.00,,CLR,0.00,VWS V14.01,2013-03-01 13:33:00,
2013-03-01 05:39:00,43.5,22.5,30.21,WNW,288,0.0,0.0,43,0.00,,CLR,0.00,VWS V14.01,2013-03-01 13:39:00,
2013-03-01 05:45:00,43.5,22.5,30.21,WNW,289,0.0,0.0,43,0.00,,CLR,0.00,VWS V14.01,2013-03-01 13:45:00,
2013-03-01 05:51:00,43.5,22.5,30.21,WNW,289,0.0,0.0,43,0.00,,CLR,0.00,VWS V14.01,2013-03-01 13:51:00,
2013-03-01 05:56:00,43.3,22.3,30.21,NW,308,0.0,0.0,43,0.00,,CLR,0.00,VWS V14.01,2013-03-01 13:56:00,
2013-03-01 06:02:00,43.3,22.3,30.21,NW,308,0.0,0.0,43,0.00,,CLR,0.00,VWS V14.01,2013-03-01 14:02:00,
2013-03-01 06:07:00,43.1,22.2,30.21,NW,313,0.0,0.0,43,0.00,,CLR,0.00,VWS V14.01,2013-03-01 14:07:00,
2013-03-01 06:12:00,43.3,22.3,30.21,North,10,0.0,2.2,43,0.00,,CLR,0.00,VWS V14.01,2013-03-01 14:12:00,
2013-03-01 06:17:00,43.3,22.3,30.21,North,357,0.0,0.0,43,0.00,,CLR,0.00,VWS V14.01,2013-03-01 14:17:00,
2013-03-01 06:23:00,43.3,21.8,30.21,North,353,0.0,0.0,42,0.00,,CLR,0.00,VWS V14.01,2013-03-01 14:23:00,
2013-03-01 06:28:00,43.3,21.8,30.21,North,353,0.0,0.0,42,0.00,,CLR,0.00,VWS V14.01,2013-03-01 14:28:00,
2013-03-01 06:34:00,43.3,21.8,30.21,North,353,0.0,0.0,42,0.00,,CLR,0.00,VWS V14.01,2013-03-01 14:34:00,
2013-03-01 06:40:00,43.1,21.6,30.21,North,353,0.0,0.0,42,0.00,,CLR,0.00,VWS V14.01,2013-03-01 14:40:00,
2013-03-01 06:45:00,43.1,21.0,30.21,North,353,0.0,0.0,41,0.00,,CLR,0.00,VWS V14.01,2013-03-01 14:45:00,
2013-03-01 06:51:00,43.7,21.0,30.21,North,353,0.0,0.0,40,0.00,,CLR,0.00,VWS V14.01,2013-03-01 14:51:00,
2013-03-01 06:56:00,44.2,21.5,30.21,North,353,0.0,0.0,40,0.00,,,0.00,VWS V14.01,2013-03-01 14:56:00,
2013-03-01 07:02:00,44.8,21.3,30.21,NW,324,0.0,0.0,39,0.00,,CLR,0.00,VWS V14.01,2013-03-01 15:02:00,
2013-03-01 07:07:00,45.3,21.8,30.21,NW,318,0.0,0.0,39,0.00,,CLR,0.00,VWS V14.01,2013-03-01 15:07:00,
2013-03-01 07:13:00,46.4,22.2,30.21,NNW,327,0.0,0.0,38,0.00,,CLR,0.00,VWS V14.01,2013-03-01 15:13:00,
2013-03-01 07:18:00,47.1,22.8,30.21,NNW,348,3.1,3.1,38,0.00,,CLR,0.00,VWS V14.01,2013-03-01 15:18:00,
2013-03-01 07:23:00,48.4,22.7,30.21,NNW,340,0.0,3.1,36,0.00,,CLR,0.00,VWS V14.01,2013-03-01 15:23:00,
2013-03-01 07:29:00,49.6,21.7,30.21,NNW,341,4.0,4.9,33,0.00,,CLR,0.00,VWS V14.01,2013-03-01 15:29:00,
2013-03-01 07:34:00,51.1,19.9,30.21,North,350,4.0,4.0,29,0.00,,CLR,0.00,VWS V14.01,2013-03-01 15:34:00,
2013-03-01 07:39:00,52.5,19.5,30.21,NNW,343,3.6,4.0,27,0.00,,CLR,0.00,VWS V14.01,2013-03-01 15:39:00,
2013-03-01 07:44:00,53.8,18.8,30.21,NNW,335,4.0,4.9,25,0.00,,CLR,0.00,VWS V14.01,2013-03-01 15:44:00,
2013-03-01 07:50:00,54.8,19.7,30.21,NNW,341,0.0,3.1,25,0.00,,CLR,0.00,VWS V14.01,2013-03-01 15:50:00,
2013-03-01 07:55:00,55.7,17.5,30.21,North,353,0.0,0.0,22,0.00,,CLR,0.00,VWS V14.01,2013-03-01 15:55:00,
2013-03-01 08:01:00,56.8,15.0,30.21,North,349,2.2,3.1,19,0.00,,CLR,0.00,VWS V14.01,2013-03-01 16:01:00,
2013-03-01 08:06:00,58.1,13.5,30.21,North,353,4.0,4.0,17,0.00,,CLR,0.00,VWS V14.01,2013-03-01 16:06:00,
2013-03-01 08:11:00,59.0,12.9,30.21,North,0,4.0,4.0,16,0.00,,CLR,0.00,VWS V14.01,2013-03-01 16:11:00,
2013-03-01 08:16:00,60.1,10.7,30.21,North,3,5.4,5.4,14,0.00,,CLR,0.00,VWS V14.01,2013-03-01 16:16:00,
2013-03-01 08:21:00,60.8,9.6,30.21,North,2,3.6,5.8,13,0.00,,CLR,0.00,VWS V14.01,2013-03-01 16:21:00,
2013-03-01 08:27:00,61.5,10.2,30.21,NNW,348,4.9,4.9,13,0.00,,CLR,0.00,VWS V14.01,2013-03-01 16:27:00,
2013-03-01 08:32:00,62.0,10.6,30.21,North,4,3.1,5.8,13,0.00,,CLR,0.00,VWS V14.01,2013-03-01 16:32:00,
2013-03-01 08:37:00,62.8,11.2,30.21,North,353,2.7,4.9,13,0.00,,CLR,0.00,VWS V14.01,2013-03-01 16:37:00,
2013-03-01 08:43:00,63.8,12.1,30.21,NNW,345,4.9,6.3,13,0.00,,CLR,0.00,VWS V14.01,2013-03-01 16:43:00,
2013-03-01 08:48:00,64.7,11.0,30.21,NNW,331,5.4,5.8,12,0.00,,CLR,0.00,VWS V14.01,2013-03-01 16:48:00,
2013-03-01 08:53:00,65.5,11.5,30.21,North,5,4.0,5.4,12,0.00,,CLR,0.00,VWS V14.01,2013-03-01 16:53:00,
2013-03-01 08:58:00,66.2,12.1,30.21,NNW,332,3.6,5.4,12,0.00,,CLR,0.00,VWS V14.01,2013-03-01 16:58:00,
2013-03-01 09:04:00,67.3,8.9,30.21,NNW,339,4.9,4.9,10,0.00,,CLR,0.00,VWS V14.01,2013-03-01 17:04:00,
2013-03-01 09:09:00,68.2,7.2,30.21,North,353,2.7,4.9,9,0.00,,CLR,0.00,VWS V14.01,2013-03-01 17:09:00,
2013-03-01 09:15:00,69.2,8.0,30.21,NNW,339,3.6,4.9,9,0.00,,CLR,0.00,VWS V14.01,2013-03-01 17:15:00,
2013-03-01 09:21:00,70.3,8.9,30.21,North,349,3.6,5.8,9,0.00,,CLR,0.00,VWS V14.01,2013-03-01 17:21:00,
2013-03-01 09:26:00,71.2,9.5,30.21,North,353,5.4,6.3,9,0.00,,CLR,0.00,VWS V14.01,2013-03-01 17:26:00,
2013-03-01 09:32:00,71.8,7.3,30.21,North,5,5.4,7.6,8,0.00,,CLR,0.00,VWS V14.01,2013-03-01 17:32:00,
2013-03-01 09:37:00,72.7,8.0,30.21,NNW,348,4.0,4.9,8,0.00,,CLR,0.00,VWS V14.01,2013-03-01 17:37:00,
2013-03-01 09:43:00,74.1,9.1,30.21,North,11,2.7,3.1,8,0.00,,CLR,0.00,VWS V14.01,2013-03-01 17:43:00,
2013-03-01 09:49:00,75.0,9.8,30.21,NNW,348,2.7,4.0,8,0.00,,CLR,0.00,VWS V14.01,2013-03-01 17:49:00,
2013-03-01 09:54:00,75.9,10.4,30.21,NNW,344,3.1,3.6,8,0.00,,CLR,0.00,VWS V14.01,2013-03-01 17:54:00,
2013-03-01 09:59:00,76.6,10.9,30.21,NNE,12,0.0,3.6,8,0.00,,CLR,0.00,VWS V14.01,2013-03-01 17:59:00,
2013-03-01 10:04:00,77.5,16.7,30.21,NNW,346,4.9,5.4,10,0.00,,CLR,0.00,VWS V14.01,2013-03-01 18:04:00,
2013-03-01 10:09:00,78.1,17.1,30.21,North,4,3.6,4.9,10,0.00,,CLR,0.00,VWS V14.01,2013-03-01 18:09:00,
2013-03-01 10:15:00,79.3,15.6,30.21,NW,325,0.0,0.0,9,0.00,,CLR,0.00,VWS V14.01,2013-03-01 18:15:00,
2013-03-01 10:21:00,79.9,16.0,30.18,NNW,338,4.0,5.8,9,0.00,,CLR,0.00,VWS V14.01,2013-03-01 18:21:00,
2013-03-01 10:26:00,79.5,15.8,30.18,NW,323,4.0,7.6,9,0.00,,CLR,0.00,VWS V14.01,2013-03-01 18:26:00,
2013-03-01 10:32:00,79.9,16.0,30.18,North,5,6.3,6.3,9,0.00,,CLR,0.00,VWS V14.01,2013-03-01 18:32:00,
2013-03-01 10:37:00,80.2,16.3,30.18,North,1,3.6,4.0,9,0.00,,CLR,0.00,VWS V14.01,2013-03-01 18:37:00,
2013-03-01 10:43:00,81.3,17.1,30.18,NNE,25,4.0,4.5,9,0.00,,CLR,0.00,VWS V14.01,2013-03-01 18:43:00,
2013-03-01 10:48:00,82.6,15.4,30.18,NW,315,4.9,4.9,8,0.00,,CLR,0.00,VWS V14.01,2013-03-01 18:48:00,
2013-03-01 10:53:00,83.3,15.9,30.18,North,353,5.4,5.4,8,0.00,,CLR,0.00,VWS V14.01,2013-03-01 18:53:00,
2013-03-01 10:59:00,83.8,16.3,30.18,NW,318,4.9,6.3,8,0.00,,CLR,0.00,VWS V14.01,2013-03-01 18:59:00,
2013-03-01 11:04:00,84.2,16.6,30.18,WNW,291,0.0,3.6,8,0.00,,CLR,0.00,VWS V14.01,2013-03-01 19:04:00,
2013-03-01 11:10:00,85.1,17.2,30.18,NNW,331,3.6,3.6,8,0.00,,CLR,0.00,VWS V14.01,2013-03-01 19:10:00,
2013-03-01 11:15:00,85.4,17.5,30.18,North,357,5.4,6.3,8,0.00,,CLR,0.00,VWS V14.01,2013-03-01 19:15:00,
2013-03-01 11:21:00,85.1,17.2,30.18,NNW,339,3.1,6.3,8,0.00,,CLR,0.00,VWS V14.01,2013-03-01 19:21:00,
2013-03-01 11:27:00,85.3,17.4,30.18,NNW,332,3.1,5.4,8,0.00,,CLR,0.00,VWS V14.01,2013-03-01 19:27:00,
2013-03-01 11:32:00,85.4,17.5,30.18,West,268,3.1,4.9,8,0.00,,CLR,0.00,VWS V14.01,2013-03-01 19:32:00,
2013-03-01 11:38:00,86.0,17.9,30.15,North,353,2.2,3.1,8,0.00,,CLR,0.00,VWS V14.01,2013-03-01 19:38:00,
2013-03-01 11:43:00,87.2,18.8,30.15,North,357,5.8,5.8,8,0.00,,CLR,0.00,VWS V14.01,2013-03-01 19:43:00,
2013-03-01 11:49:00,87.4,19.0,30.15,NW,311,3.1,3.1,8,0.00,,CLR,0.00,VWS V14.01,2013-03-01 19:49:00,
2013-03-01 11:54:00,86.9,18.6,30.15,ESE,105,4.0,4.0,8,0.00,,CLR,0.00,VWS V14.01,2013-03-01 19:54:00,
2013-03-01 12:00:00,87.4,19.0,30.15,ENE,72,2.2,3.1,8,0.00,,CLR,0.00,VWS V14.01,2013-03-01 20:00:00,
2013-03-01 12:05:00,88.0,16.3,30.15,East,98,3.1,4.0,7,0.00,,CLR,0.00,VWS V14.01,2013-03-01 20:05:00,
2013-03-01 12:10:00,89.0,17.1,30.15,East,79,5.4,7.6,7,0.00,,CLR,0.00,VWS V14.01,2013-03-01 20:10:00,
2013-03-01 12:16:00,90.1,17.8,30.15,East,95,6.3,8.3,7,0.00,,CLR,0.00,VWS V14.01,2013-03-01 20:16:00,
2013-03-01 12:21:00,88.7,16.8,30.15,ENE,64,5.8,10.1,7,0.00,,CLR,0.00,VWS V14.01,2013-03-01 20:21:00,
2013-03-01 12:27:00,86.9,18.6,30.15,ENE,68,8.7,8.7,8,0.00,,CLR,0.00,VWS V14.01,2013-03-01 20:27:00,
2013-03-01 12:32:00,88.5,16.7,30.15,ENE,67,4.0,11.0,7,0.00,,CLR,0.00,VWS V14.01,2013-03-01 20:32:00,
2013-03-01 12:38:00,89.9,17.7,30.12,NNE,25,6.3,10.1,7,0.00,,CLR,0.00,VWS V14.01,2013-03-01 20:38:00,
2013-03-01 12:43:00,89.2,17.2,30.12,NE,48,5.4,7.6,7,0.00,,CLR,0.00,VWS V14.01,2013-03-01 20:43:00,
2013-03-01 12:50:00,89.2,17.2,30.12,North,10,7.6,7.6,7,0.00,,CLR,0.00,VWS V14.01,2013-03-01 20:50:00,
2013-03-01 12:56:00,90.7,18.2,30.12,East,80,6.3,7.6,7,0.00,,CLR,0.00,VWS V14.01,2013-03-01 20:56:00,
2013-03-01 13:02:00,89.4,17.3,30.12,East,88,6.3,6.3,7,0.00,,CLR,0.00,VWS V14.01,2013-03-01 21:02:00,
2013-03-01 13:07:00,90.8,18.4,30.12,ENE,67,4.0,8.3,7,0.00,,CLR,0.00,VWS V14.01,2013-03-01 21:07:00,
2013-03-01 13:13:00,86.7,18.4,30.12,SE,135,8.3,8.3,8,0.00,,CLR,0.00,VWS V14.01,2013-03-01 21:13:00,
2013-03-01 13:19:00,89.0,17.1,30.12,SE,146,2.7,5.4,7,0.00,,CLR,0.00,VWS V14.01,2013-03-01 21:19:00,
2013-03-01 13:24:00,89.4,17.3,30.12,West,260,2.7,4.9,7,0.00,,CLR,0.00,VWS V14.01,2013-03-01 21:24:00,
2013-03-01 13:30:00,90.8,18.4,30.12,SSE,158,5.4,6.3,7,0.00,,CLR,0.00,VWS V14.01,2013-03-01 21:30:00,
2013-03-01 13:35:00,90.3,18.0,30.09,South,173,3.6,4.0,7,0.00,,CLR,0.00,VWS V14.01,2013-03-01 21:35:00,
2013-03-01 13:41:00,89.4,17.3,30.09,WNW,284,0.0,3.1,7,0.00,,CLR,0.00,VWS V14.01,2013-03-01 21:41:00,
2013-03-01 13:47:00,88.1,16.4,30.09,West,265,7.6,7.6,7,0.00,,CLR,0.00,VWS V14.01,2013-03-01 21:47:00,
2013-03-01 13:52:00,87.1,18.7,30.09,WNW,290,3.1,3.1,8,0.00,,CLR,0.00,VWS V14.01,2013-03-01 21:52:00,
2013-03-01 13:57:00,88.9,16.9,30.09,South,172,3.1,5.4,7,0.00,,CLR,0.00,VWS V14.01,2013-03-01 21:57:00,
2013-03-01 14:02:00,90.3,18.0,30.09,SW,229,3.1,3.1,7,0.00,,CLR,0.00,VWS V14.01,2013-03-01 22:02:00,
2013-03-01 14:08:00,88.0,16.3,30.09,West,260,4.9,8.7,7,0.00,,CLR,0.00,VWS V14.01,2013-03-01 22:08:00,
2013-03-01 14:13:00,86.0,17.9,30.09,West,265,5.4,10.1,8,0.00,,CLR,0.00,VWS V14.01,2013-03-01 22:13:00,
2013-03-01 14:18:00,85.1,17.2,30.09,WSW,255,5.8,9.6,8,0.00,,CLR,0.00,VWS V14.01,2013-03-01 22:18:00,
2013-03-01 14:23:00,85.1,17.2,30.09,WNW,293,4.9,9.2,8,0.00,,CLR,0.00,VWS V14.01,2013-03-01 22:23:00,
2013-03-01 14:29:00,85.1,17.2,30.09,WSW,256,8.3,8.7,8,0.00,,CLR,0.00,VWS V14.01,2013-03-01 22:29:00,
2013-03-01 14:34:00,85.3,17.4,30.09,WNW,294,5.4,7.6,8,0.00,,CLR,0.00,VWS V14.01,2013-03-01 22:34:00,
2013-03-01 14:40:00,84.0,16.4,30.09,WNW,299,5.4,7.6,8,0.00,,CLR,0.00,VWS V14.01,2013-03-01 22:40:00,
2013-03-01 14:46:00,83.3,15.9,30.09,West,265,10.1,10.1,8,0.00,,CLR,0.00,VWS V14.01,2013-03-01 22:46:00,
2013-03-01 14:51:00,84.2,16.6,30.09,West,273,5.8,8.3,8,0.00,,CLR,0.00,VWS V14.01,2013-03-01 22:51:00,
2013-03-01 14:56:00,83.1,15.8,30.09,West,260,8.3,10.5,8,0.00,,CLR,0.00,VWS V14.01,2013-03-01 22:56:00,
2013-03-01 15:02:00,83.5,16.0,30.09,NNW,329,7.6,8.1,8,0.00,,CLR,0.00,VWS V14.01,2013-03-01 23:02:00,
2013-03-01 15:08:00,82.7,15.5,30.06,WNW,296,11.0,11.0,8,0.00,,CLR,0.00,VWS V14.01,2013-03-01 23:08:00,
2013-03-01 15:13:00,82.4,15.2,30.06,NNW,328,7.6,13.2,8,0.00,,CLR,0.00,VWS V14.01,2013-03-01 23:13:00,
2013-03-01 15:19:00,81.8,17.5,30.06,West,262,4.0,8.3,9,0.00,,CLR,0.00,VWS V14.01,2013-03-01 23:19:00,
2013-03-01 15:24:00,82.7,15.5,30.06,West,270,3.6,5.4,8,0.00,,CLR,0.00,VWS V14.01,2013-03-01 23:24:00,
2013-03-01 15:29:00,82.0,17.7,30.06,WNW,286,8.7,9.6,9,0.00,,CLR,0.00,VWS V14.01,2013-03-01 23:29:00,
2013-03-01 15:34:00,81.3,17.1,30.06,WNW,287,12.3,12.3,9,0.00,,CLR,0.00,VWS V14.01,2013-03-01 23:34:00,
2013-03-01 15:40:00,81.5,17.3,30.06,NW,313,5.8,8.3,9,0.00,,CLR,0.00,VWS V14.01,2013-03-01 23:40:00,
2013-03-01 15:46:00,81.5,17.3,30.06,WNW,284,5.8,6.3,9,0.00,,CLR,0.00,VWS V14.01,2013-03-01 23:46:00,
2013-03-01 15:51:00,81.1,17.0,30.06,WNW,287,6.3,8.1,9,0.00,,CLR,0.00,VWS V14.01,2013-03-01 23:51:00,
2013-03-01 15:57:00,80.6,16.6,30.06,WNW,298,5.4,6.3,9,0.00,,CLR,0.00,VWS V14.01,2013-03-01 23:57:00,
2013-03-01 16:02:00,80.4,16.5,30.06,WNW,292,7.6,8.7,9,0.00,,CLR,0.00,VWS V14.01,2013-03-02 00:02:00,
2013-03-01 16:08:00,79.5,15.8,30.06,West,266,8.1,8.1,9,0.00,,CLR,0.00,VWS V14.01,2013-03-02 00:08:00,
2013-03-01 16:13:00,79.7,15.9,30.06,West,274,8.1,8.7,9,0.00,,CLR,0.00,VWS V14.01,2013-03-02 00:13:00,
2013-03-01 16:18:00,80.0,16.2,30.06,NW,308,5.8,8.7,9,0.00,,CLR,0.00,VWS V14.01,2013-03-02 00:18:00,
2013-03-01 16:24:00,80.0,16.2,30.06,NW,324,5.4,6.3,9,0.00,,CLR,0.00,VWS V14.01,2013-03-02 00:24:00,
2013-03-01 16:29:00,79.7,15.9,30.06,West,274,5.4,6.3,9,0.00,,CLR,0.00,VWS V14.01,2013-03-02 00:29:00,
2013-03-01 16:35:00,79.7,15.9,30.06,WNW,293,5.8,8.1,9,0.00,,CLR,0.00,VWS V14.01,2013-03-02 00:35:00,
2013-03-01 16:40:00,79.1,9.8,30.06,WNW,283,2.2,5.4,7,0.00,,CLR,0.00,VWS V14.01,2013-03-02 00:40:00,
2013-03-01 16:46:00,79.1,9.8,30.06,WNW,283,7.2,7.6,7,0.00,,CLR,0.00,VWS V14.01,2013-03-02 00:46:00,
2013-03-01 16:52:00,78.6,9.4,30.06,West,272,5.8,6.3,7,0.00,,CLR,0.00,VWS V14.01,2013-03-02 00:52:00,
2013-03-01 16:57:00,77.7,8.8,30.06,WSW,258,8.3,8.3,7,0.00,,CLR,0.00,VWS V14.01,2013-03-02 00:57:00,
2013-03-01 17:03:00,77.2,8.4,30.06,WNW,289,7.2,7.2,7,0.00,,CLR,0.00,VWS V14.01,2013-03-02 01:03:00,
2013-03-01 17:08:00,77.0,8.2,30.06,NW,307,4.9,6.3,7,0.00,,CLR,0.00,VWS V14.01,2013-03-02 01:08:00,
2013-03-01 17:14:00,76.4,10.8,30.06,West,268,6.3,8.1,8,0.00,,CLR,0.00,VWS V14.01,2013-03-02 01:14:00,
2013-03-01 17:20:00,76.3,10.7,30.06,WNW,283,5.8,5.8,8,0.00,,CLR,0.00,VWS V14.01,2013-03-02 01:20:00,
2013-03-01 17:25:00,75.7,10.3,30.06,West,269,8.3,8.3,8,0.00,,CLR,0.00,VWS V14.01,2013-03-02 01:25:00,
2013-03-01 17:31:00,75.0,9.8,30.06,WNW,297,5.4,5.4,8,0.00,,CLR,0.00,VWS V14.01,2013-03-02 01:31:00,
2013-03-01 17:36:00,74.5,9.3,30.09,West,273,5.4,5.4,8,0.00,,CLR,0.00,VWS V14.01,2013-03-02 01:36:00,
2013-03-01 17:42:00,73.6,8.7,30.09,WSW,256,6.3,7.6,8,0.00,,CLR,0.00,VWS V14.01,2013-03-02 01:42:00,
2013-03-01 17:47:00,73.2,8.4,30.09,WSW,254,3.6,3.6,8,0.00,,CLR,0.00,VWS V14.01,2013-03-02 01:47:00,
2013-03-01 17:53:00,72.7,8.0,30.09,WNW,293,3.1,4.0,8,0.00,,CLR,0.00,VWS V14.01,2013-03-02 01:53:00,
2013-03-01 17:59:00,72.3,7.7,30.09,NW,315,2.7,3.6,8,0.00,,CLR,0.00,VWS V14.01,2013-03-02 01:59:00,
2013-03-01 18:04:00,71.9,7.5,30.09,West,278,3.1,4.0,8,0.00,,CLR,0.00,VWS V14.01,2013-03-02 02:04:00,
2013-03-01 18:10:00,71.4,7.1,30.09,NW,324,3.1,4.0,8,0.00,,CLR,0.00,VWS V14.01,2013-03-02 02:10:00,
2013-03-01 18:15:00,71.0,9.4,30.09,WNW,298,2.7,4.0,9,0.00,,CLR,0.00,VWS V14.01,2013-03-02 02:15:00,
2013-03-01 18:20:00,70.7,9.1,30.09,NW,310,0.0,0.0,9,0.00,,CLR,0.00,VWS V14.01,2013-03-02 02:20:00,
2013-03-01 18:25:00,70.3,8.9,30.09,WNW,293,0.0,3.1,9,0.00,,CLR,0.00,VWS V14.01,2013-03-02 02:25:00,
2013-03-01 18:30:00,70.1,8.7,30.09,WNW,301,2.7,3.1,9,0.00,,CLR,0.00,VWS V14.01,2013-03-02 02:30:00,
2013-03-01 18:36:00,69.8,8.4,30.09,West,260,0.0,0.0,9,0.00,,CLR,0.00,VWS V14.01,2013-03-02 02:36:00,
2013-03-01 18:42:00,69.4,8.2,30.09,WNW,291,0.0,0.0,9,0.00,,CLR,0.00,VWS V14.01,2013-03-02 02:42:00,
2013-03-01 18:47:00,69.1,7.9,30.09,NW,310,0.0,0.0,9,0.00,,CLR,0.00,VWS V14.01,2013-03-02 02:47:00,
2013-03-01 18:53:00,68.7,7.6,30.09,WNW,298,0.0,0.0,9,0.00,,CLR,0.00,VWS V14.01,2013-03-02 02:53:00,
2013-03-01 18:58:00,68.3,7.3,30.09,WNW,298,0.0,0.0,9,0.00,,CLR,0.00,VWS V14.01,2013-03-02 02:58:00,
2013-03-01 19:04:00,67.8,6.9,30.12,WNW,298,0.0,0.0,9,0.00,,CLR,0.00,VWS V14.01,2013-03-02 03:04:00,
2013-03-01 19:09:00,67.4,9.0,30.12,NE,49,0.0,0.0,10,0.00,,CLR,0.00,VWS V14.01,2013-03-02 03:09:00,
2013-03-01 19:15:00,66.9,8.6,30.12,NE,49,0.0,0.0,10,0.00,,CLR,0.00,VWS V14.01,2013-03-02 03:15:00,
2013-03-01 19:21:00,66.5,8.3,30.12,NE,49,0.0,0.0,10,0.00,,CLR,0.00,VWS V14.01,2013-03-02 03:21:00,
2013-03-01 19:26:00,66.2,8.0,30.12,NE,55,0.0,0.0,10,0.00,,CLR,0.00,VWS V14.01,2013-03-02 03:26:00,
2013-03-01 19:32:00,65.5,7.5,30.12,West,278,0.0,0.0,10,0.00,,CLR,0.00,VWS V14.01,2013-03-02 03:32:00,
2013-03-01 19:37:00,65.3,7.3,30.12,NNW,346,2.7,2.7,10,0.00,,CLR,0.00,VWS V14.01,2013-03-02 03:37:00,
2013-03-01 19:42:00,64.7,6.9,30.12,NE,42,3.1,3.6,10,0.00,,CLR,0.00,VWS V14.01,2013-03-02 03:42:00,
2013-03-01 19:48:00,64.4,6.7,30.12,NNE,29,0.0,0.0,10,0.00,,CLR,0.00,VWS V14.01,2013-03-02 03:48:00,
2013-03-01 19:53:00,64.2,6.5,30.12,NNE,29,0.0,0.0,10,0.00,,CLR,0.00,VWS V14.01,2013-03-02 03:53:00,
2013-03-01 19:58:00,63.8,6.2,30.12,NE,43,0.0,0.0,10,0.00,,CLR,0.00,VWS V14.01,2013-03-02 03:58:00,
2013-03-01 20:03:00,63.7,6.1,30.12,NNE,29,3.1,3.1,10,0.00,,CLR,0.00,VWS V14.01,2013-03-02 04:03:00,
2013-03-01 20:09:00,63.3,5.8,30.12,NNE,21,0.0,0.0,10,0.00,,CLR,0.00,VWS V14.01,2013-03-02 04:09:00,
2013-03-01 20:14:00,62.9,5.6,30.12,NNE,21,0.0,0.0,10,0.00,,CLR,0.00,VWS V14.01,2013-03-02 04:14:00,
2013-03-01 20:20:00,62.8,5.4,30.12,NNE,24,2.2,3.1,10,0.00,,CLR,0.00,VWS V14.01,2013-03-02 04:20:00,
2013-03-01 20:25:00,62.6,5.3,30.12,NE,50,2.7,3.1,10,0.00,,CLR,0.00,VWS V14.01,2013-03-02 04:25:00,
2013-03-01 20:31:00,62.2,7.1,30.12,NNE,12,3.1,3.6,11,0.00,,CLR,0.00,VWS V14.01,2013-03-02 04:31:00,
2013-03-01 20:37:00,62.0,6.9,30.12,North,349,4.0,4.0,11,0.00,,CLR,0.00,VWS V14.01,2013-03-02 04:37:00,
2013-03-01 20:42:00,62.2,7.1,30.12,North,353,2.7,3.6,11,0.00,,CLR,0.00,VWS V14.01,2013-03-02 04:42:00,
2013-03-01 20:48:00,62.4,5.1,30.12,NNW,337,2.7,3.1,10,0.00,,CLR,0.00,VWS V14.01,2013-03-02 04:48:00,
2013-03-01 20:53:00,62.2,7.1,30.12,North,11,2.2,2.7,11,0.00,,CLR,0.00,VWS V14.01,2013-03-02 04:53:00,
2013-03-01 20:59:00,62.0,6.9,30.12,NNE,14,0.0,0.0,11,0.00,,CLR,0.00,VWS V14.01,2013-03-02 04:59:00,
2013-03-01 21:00:00,62.0,6.9,30.12,NNE,15,0.0,0.0,11,0.00,,CLR,0.00,VWS V14.01,2013-03-02 05:00:00,
2013-03-01 21:01:00,62.0,6.9,30.12,NNE,15,0.0,0.0,11,0.00,,CLR,0.00,VWS V14.01,2013-03-02 05:01:00,
2013-03-01 21:02:00,62.0,6.9,30.12,NNE,15,0.0,0.0,11,0.00,,CLR,0.00,VWS V14.01,2013-03-02 05:02:00,
2013-03-01 21:07:00,61.9,6.8,30.12,NNE,16,0.0,0.0,11,0.00,,CLR,0.00,VWS V14.01,2013-03-02 05:07:00,
2013-03-01 21:13:00,61.3,6.4,30.12,NNE,16,0.0,0.0,11,0.00,,CLR,0.00,VWS V14.01,2013-03-02 05:13:00,
2013-03-01 21:18:00,61.0,6.1,30.15,NNE,16,0.0,0.0,11,0.00,,CLR,0.00,VWS V14.01,2013-03-02 05:18:00,
2013-03-01 21:23:00,60.6,5.8,30.15,NNE,16,0.0,0.0,11,0.00,,CLR,0.00,VWS V14.01,2013-03-02 05:23:00,
2013-03-01 21:29:00,60.1,5.4,30.15,North,5,0.0,0.0,11,0.00,,CLR,0.00,VWS V14.01,2013-03-02 05:29:00,
2013-03-01 21:34:00,59.7,5.1,30.15,North,5,0.0,0.0,11,0.00,,CLR,0.00,VWS V14.01,2013-03-02 05:34:00,
2013-03-01 21:40:00,59.5,5.0,30.15,North,5,0.0,0.0,11,0.00,,CLR,0.00,VWS V14.01,2013-03-02 05:40:00,
2013-03-01 21:45:00,59.2,4.7,30.15,North,5,0.0,0.0,11,0.00,,CLR,0.00,VWS V14.01,2013-03-02 05:45:00,
2013-03-01 21:51:00,58.8,4.4,30.12,North,5,0.0,0.0,11,0.00,,CLR,0.00,VWS V14.01,2013-03-02 05:51:00,
2013-03-01 21:56:00,58.6,6.2,30.12,North,5,0.0,0.0,12,0.00,,CLR,0.00,VWS V14.01,2013-03-02 05:56:00,
2013-03-01 22:01:00,58.4,6.0,30.12,North,5,0.0,0.0,12,0.00,,CLR,0.00,VWS V14.01,2013-03-02 06:01:00,
2013-03-01 22:06:00,58.1,5.8,30.15,North,5,0.0,0.0,12,0.00,,CLR,0.00,VWS V14.01,2013-03-02 06:06:00,
2013-03-01 22:12:00,58.1,5.8,30.15,North,5,0.0,0.0,12,0.00,,CLR,0.00,VWS V14.01,2013-03-02 06:12:00,
2013-03-01 22:18:00,57.7,5.5,30.15,North,5,0.0,0.0,12,0.00,,CLR,0.00,VWS V14.01,2013-03-02 06:18:00,
2013-03-01 22:23:00,57.4,5.2,30.15,North,5,0.0,0.0,12,0.00,,CLR,0.00,VWS V14.01,2013-03-02 06:23:00,
2013-03-01 22:29:00,57.0,8.3,30.15,ENE,60,0.0,0.0,14,0.00,,CLR,0.00,VWS V14.01,2013-03-02 06:29:00,
2013-03-01 22:34:00,56.8,8.1,30.15,ENE,60,0.0,0.0,14,0.00,,CLR,0.00,VWS V14.01,2013-03-02 06:34:00,
2013-03-01 22:39:00,56.5,7.9,30.15,ENE,60,0.0,0.0,14,0.00,,CLR,0.00,VWS V14.01,2013-03-02 06:39:00,
2013-03-01 22:44:00,56.3,7.7,30.15,ENE,60,0.0,0.0,14,0.00,,CLR,0.00,VWS V14.01,2013-03-02 06:44:00,
2013-03-01 22:50:00,56.1,7.6,30.15,ENE,60,0.0,0.0,14,0.00,,CLR,0.00,VWS V14.01,2013-03-02 06:50:00,
2013-03-01 22:55:00,55.9,7.4,30.15,ENE,60,0.0,0.0,14,0.00,,CLR,0.00,VWS V14.01,2013-03-02 06:55:00,
2013-03-01 23:00:00,55.7,7.3,30.15,ENE,60,0.0,0.0,14,0.00,,CLR,0.00,VWS V14.01,2013-03-02 07:00:00,
2013-03-01 23:05:00,55.6,7.1,30.15,ENE,60,0.0,0.0,14,0.00,,CLR,0.00,VWS V14.01,2013-03-02 07:05:00,
2013-03-01 23:10:00,55.6,7.1,30.15,ENE,60,0.0,0.0,14,0.00,,CLR,0.00,VWS V14.01,2013-03-02 07:10:00,
2013-03-01 23:16:00,55.4,7.0,30.15,ENE,60,0.0,0.0,14,0.00,,CLR,0.00,VWS V14.01,2013-03-02 07:16:00,
2013-03-01 23:22:00,55.0,8.2,30.15,ENE,60,0.0,0.0,15,0.00,,CLR,0.00,VWS V14.01,2013-03-02 07:22:00,
2013-03-01 23:28:00,54.7,7.9,30.15,ENE,60,0.0,0.0,15,0.00,,CLR,0.00,VWS V14.01,2013-03-02 07:28:00,
2013-03-01 23:33:00,54.5,10.6,30.15,ENE,60,0.0,0.0,17,0.00,,CLR,0.00,VWS V14.01,2013-03-02 07:33:00,
2013-03-01 23:39:00,54.3,10.4,30.15,ENE,60,0.0,0.0,17,0.00,,CLR,0.00,VWS V14.01,2013-03-02 07:39:00,
2013-03-01 23:44:00,54.1,10.3,30.15,ENE,60,0.0,0.0,17,0.00,,CLR,0.00,VWS V14.01,2013-03-02 07:44:00,
2013-03-01 23:49:00,53.8,10.0,30.15,ENE,60,0.0,0.0,17,0.00,,CLR,0.00,VWS V14.01,2013-03-02 07:49:00,
2013-03-01 23:54:00,53.6,9.9,30.15,ENE,60,0.0,0.0,17,0.00,,CLR,0.00,VWS V14.01,2013-03-02 07:54:00,